Regional Weather Roundup
Issued by NWS

Home | Current Version | Previous Version | Graphics & Text | Print | Product List | Glossary Off
Versions: 1 2 3 4 5 6 7 8 9 10 11 12 13 14 15 16 17 18 19 20 21 22 23 24 25 26 27 28 29 30 31 32 33 34 35 36 37 38 39 40 41 42 43 44 45 46 47 48 49 50

000
ASUS43 KLSX 172359
RWRMO

WEATHER SUMMARY FOR MISSOURI
NATIONAL WEATHER SERVICE SPRINGFIELD MO
700 PM CDT FRI APR 17 2015

NOTE: "FAIR" INDICATES FEW OR NO CLOUDS BELOW 12,000 FEET WITH NO
       SIGNIFICANT WEATHER AND/OR OBSTRUCTIONS TO VISIBILITY.
       CURRENT SKY AND/OR WEATHER CONDITIONS ARE NOT AVAILABLE FOR
       CHILLICOTHE AND FARMINGTON.

MOZ001>031-035>038-043-044-053-054-180100-
...NORTHERN AND WESTERN MISSOURI...

CITY           SKY/WX    TMP DP  RH WIND       PRES   REMARKS
KANSAS CTY INT LGT RAIN  68  60  75 S3        29.97R
6HR MIN TEMP:  67; 6HR MAX TEMP:  77; 6HR PCP:  0.01;

KANSAS C DTWN  CLOUDY    75  58  55 S5        29.95S
6HR MIN TEMP:  75; 6HR MAX TEMP:  79; 6HR PCP: TRACE;

LEE`S SUMMIT   MOCLDY    75  55  49 S5        29.96F
6HR MIN TEMP:  74; 6HR MAX TEMP:  78;

ST JOSEPH      CLOUDY    74  56  53 SE5       29.96S
6HR MIN TEMP:  74; 6HR MAX TEMP:  77;

CHILLICOTHE      N/A     76  56  49 SE5       29.98R
6HR MIN TEMP:  76; 6HR MAX TEMP:  80;

KIRKSVILLE     PTCLDY    74  58  57 SE12      29.99S
6HR MIN TEMP:  74; 6HR MAX TEMP:  80;


$$
MOZ066>068-077>081-088>096-101>105-180100-
...SOUTHWEST MISSOURI...

CITY           SKY/WX    TMP DP  RH WIND       PRES   REMARKS
SPRINGFIELD    CLEAR     74  57  55 S7        29.97R
6HR MIN TEMP:  71; 6HR MAX TEMP:  77; 6HR PCP: TRACE;

JOPLIN         MOCLDY    73  61  65 E5        29.94F
6HR MIN TEMP:  63; 6HR MAX TEMP:  77;


$$
MOZ032>034-039>042-045>050-055>058-069>072-180100-
...CENTRAL MISSOURI...

CITY           SKY/WX    TMP DP  RH WIND       PRES   REMARKS
COLUMBIA       MOCLDY    76  56  49 E3        29.97R
6HR MIN TEMP:  74; 6HR MAX TEMP:  79;

JEFFERSON CITY MOCLDY    78  54  43 NE6       29.95S
6HR MIN TEMP:  76; 6HR MAX TEMP:  80;

ROLLA          MOCLDY    75  56  51 S3        29.96R
6HR MIN TEMP:  73; 6HR MAX TEMP:  79;

SEDALIA        PTCLDY    76  55  48 E7        29.98R
6HR MIN TEMP:  76; 6HR MAX TEMP:  81;

WHITEMAN AFB   MOCLDY    74  59  60 SE5       29.95R
OSAGE BEACH    MOCLDY    79  54  41 E5        29.96R

$$
MOZ051-052-059>065-180100-
...EAST CENTRAL MISSOURI...

CITY           SKY/WX    TMP DP  RH WIND       PRES   REMARKS
ST LOUIS INTL  PTCLDY    75  55  49 E7        29.99S
6HR MIN TEMP:  75; 6HR MAX TEMP:  80;

SPIRIT OF STL  PTCLDY    72  56  57 E8        29.97S
6HR MIN TEMP:  72; 6HR MAX TEMP:  79;

ST CHARLES     PTCLDY    74  56  53 E7        29.98S
6HR MIN TEMP:  74; 6HR MAX TEMP:  78;


$$
MOZ072>076-082>087-097>100-106>115-180100-
...SOUTH CENTRAL AND SOUTHEAST MISSOURI...

CITY           SKY/WX    TMP DP  RH WIND       PRES   REMARKS
CAPE GIRARDEAU CLEAR     72  64  76 W6        30.00R
6HR MIN TEMP:  70; 6HR MAX TEMP:  75;

FARMINGTON     CLEAR     73  57  56 SE5       30.03R
6HR MIN TEMP:  72; 6HR MAX TEMP:  75;

POPLAR BLUFF   CLEAR     70  62  76 E6        29.99R
6HR MIN TEMP:  68; 6HR MAX TEMP:  74;

WEST PLAINS    MOCLDY    73  61  65 SW10      30.00R
6HR MIN TEMP:  73; 6HR MAX TEMP:  77;


$$



USA.gov is the U.S. government's official web portal to all federal, state and local government web resources and services.